Starlink 3648

operational
NORAD ID: 51993 Int'l Des: 2022-025 Owner: SPXS Country: US Constellation: starlink
LEOCIRCULAR

关于 Starlink 3648

正在加载描述...

实时位置

正在加载3D地球...

即将过境

高度历史

Altitude vs Time

uPlot chart will show altitude changes over time

两行轨道根数

1 51993U 22025AP 26062.39982250 .00011994 00000-0 77041-3 0 9998
2 51993 53.2160 67.3568 0001511 96.5023 263.6141 15.08838164220117
Epoch: Mar 3, 2026 • Age: 39 hours

当前状态

高度 553.9 km
速度 7.58 km/s
星下点 -40.88°S, 109.21°W
发射日期 Mar 9, 2022
运行时间 3.9 years
类型 internet

技术详情

分类 Payload
质量 297.00 kg
干质量 275.00 kg
总质量 297.00 kg
长度 0.20 m
直径 2.80 m
跨度 9.00 m
形状 Box + pan
制造商 SPXS
平台类型 Starlink
阶段状态 In Orbit
所有者/国家 SPXS/US

大型星座

Loading constellations...